一网星座-0087星 (ONEWEB-0087 )

导读

ONEWEB-0087是英国OneWeb星座下的低轨宽带通信卫星,于2020年3月21日发射,属于OneWeb全球互联网组网的首批组网卫星之一,运行在低地球轨道,旨在为全球偏远地区、海洋等缺乏地面网络覆盖的区域提供高速互联网接入服务,填补地面通信网络的覆盖盲区,推动全球卫星互联网基础设施建设。英国政府牵头参与OneWeb项目,该卫星也是低轨卫星互联网竞争中的早期节点。

基本信息
目录编号:
45451
目录名称:
ONEWEB-0087
国际标识:
2020-020AD
轨道中心:
EARTH
卫星名称:
一网星座-0087星
卫星全名:
一网星座-0087星 (ONEWEB-0087 )
卫星状态:
在轨 (已飞行2276 天)
发射日期:
2020-03-21 UTC
国别 :
英国 (GB)
星等 :
--
轨道信息
数据来源 国际轨道数据 AOE轨道数据
星历时间 2026-06-14T20:19:24+0800
4小时前
查看轨道信息
2026-06-14T08:00:00+0800
16小时前
查看轨道信息
半长轴 7595.82km 7595.835km
偏心率 0.0001702 0.0001396
轨道倾角 87.891° 87.890°
近地点辐角 75.776° 88.511°
升交点赤经 21.575° 21.677°
平近点角 284.355° 8.819°
近地点 1216.39km 1216.637km
远地点 1218.976km 1218.759km
周期 109.805分钟 109.805分钟
每日圈数 13.11417 13.114131
详细信息
平衡模式:
三轴稳定
覆盖范围:
全球
运营商:
一网卫星公司
运营商所在国:
英国
制造商(研发单位):
一网卫星公司
制造商所在国:
英国
使用方式:
暂无
卫星简介
OneWeb卫星网络由648颗重约125公斤的微型卫星组成,运行在1200公里的轨道上。 每颗卫星都能够提供至少每秒8千兆位的吞吐量,以使用其高吞吐量的Ku频段有效载荷为家庭和移动平台提供互联网接入。该卫星仍在工作。
2D轨道图
3D轨道图
轨道高度分析图
轨道倾角分析图
轨道综合分析图
查看轨道综合分析图